Location: Newark
(49.8969°N, 3.3422°E)
Time: 01:01:00
(UTC+00:00)

Explorer 7 - Pass Details

Date: 25 January 2020
Orbit: 485 x 679 km, 50.3° (Epoch: 20 February)

Event Time Altitude Azimuth Distance (km) Brightness Sun altitude
Rises 03:31:24 0° 285° (WNW) 2,568 - -38.0°
Reaches altitude 10° 03:33:35 10° 279° (W) 1,698 - -37.6°
Maximum altitude 03:37:16 47° 205° (SSW) 685 - -37.1°
Drops below altitude 10° 03:41:07 10° 131° (SE) 1,769 - -36.5°
Exits shadow 03:42:35 - 127° (SE) 2,349 10.5 -36.2°
Sets 03:43:26 0° 126° (SE) 2,690 10.8 -36.1°
